Lebanon, NH

12:58 AM EDT on August 24, 2017 (GMT -0400)
Lebanon Municipal

Weather History for KLEB - April, 2013

Change the Weather History Date:

Wednesday, April 10, 2013

  Actual Average Record
Temperature  
Mean Temperature 48 °F -  
Max Temperature 54 °F 50 °F 80 °F (1945)
Min Temperature 42 °F 30 °F 15 °F (1939)
Degree Days  
Heating Degree Days 18    
Moisture  
Dew Point 41 °F    
Average Humidity 85    
Maximum Humidity 96    
Minimum Humidity 67    
Precipitation  
Precipitation 0.73 in - - ()
Sea Level Pressure  
Sea Level Pressure 29.94 in    
Wind  
Wind Speed 2 mph (North)    
Max Wind Speed 6 mph    
Max Gust Speed -    
Visibility 6 miles    
Events Rain    
Averages and records for this station are not official NWS values.
T = Trace of Precipitation, MM = Missing Value Source: NWS Daily Summary

Daily Weather History Graph

Daily Weather History Graph

Search for Another Location

Airport or City:

Trip Planner

Search our weather history database for the weather conditions in past years. The results will help you decide how hot, cold, wet, or windy it might be!

Date:

Astronomy

Apr. 10, 2013 Rise Set
Actual Time 6:14 AM EDT 7:26 PM EDT
Civil Twilight 5:45 AM EDT 7:56 PM EDT
Nautical Twilight 5:09 AM EDT 8:32 PM EDT
Astronomical Twilight 4:32 AM EDT 9:09 PM EDT
Moon 6:08 AM EDT (4/10) 8:01 PM EDT (4/10)
Length of Visible Light 14h 11m
Length of Day
13h 12m
New Moon, 0% of the Moon is Illuminated
Apr 10
New Moon
Apr 18
First Quarter
Apr 25
Full
May 2
Last Quarter
May 9
New

Hourly Weather History & Observations

Time (EDT) Temp. Windchill Dew Point Humidity Pressure Visibility Wind Dir Wind Speed Gust Speed Precip Events Conditions
12:53 AM 43.0 °F 41.3 °F 39.9 °F 89% 29.96 in 5.0 mi North 3.5 mph - 0.03 in Rain Light Rain
1:53 AM 42.1 °F 40.2 °F 39.9 °F 92% 29.98 in 3.0 mi SSE 3.5 mph - 0.16 in Rain Light Rain
2:18 AM 42.8 °F - 39.2 °F 87% 29.99 in 2.5 mi Calm Calm - 0.11 in Rain Rain
2:21 AM 42.8 °F - 39.2 °F 87% 29.99 in 2.0 mi Calm Calm - 0.13 in Rain Rain
2:28 AM 42.8 °F - 39.2 °F 87% 29.97 in 3.0 mi Calm Calm - 0.16 in Rain Rain
2:53 AM 42.1 °F 38.4 °F 39.9 °F 92% 29.94 in 6.0 mi NE 5.8 mph - 0.22 in Rain Light Rain
3:11 AM 42.8 °F 39.3 °F 39.2 °F 87% 29.95 in 5.0 mi North 5.8 mph - 0.01 in Rain Light Rain
3:34 AM 42.8 °F - 39.2 °F 87% 29.94 in 3.0 mi Calm Calm - 0.05 in Rain Light Rain
3:48 AM 42.8 °F - 39.2 °F 87% 29.93 in 4.0 mi Calm Calm - 0.06 in Rain Light Rain
3:53 AM 42.1 °F - 41.0 °F 96% 29.93 in 4.0 mi Calm Calm - 0.07 in Rain Light Rain
4:12 AM 42.8 °F - 39.2 °F 87% 29.94 in 2.5 mi Calm Calm - 0.00 in Rain Light Rain
4:19 AM 42.8 °F - 39.2 °F 87% 29.94 in 3.0 mi Calm Calm - 0.01 in Rain Light Rain
4:53 AM 42.1 °F - 39.9 °F 92% 29.93 in 4.0 mi Calm Calm - 0.02 in   Overcast
5:08 AM 42.8 °F - 39.2 °F 87% 29.92 in 2.5 mi Calm Calm - 0.02 in Rain Light Rain
5:20 AM 42.8 °F - 39.2 °F 87% 29.92 in 3.0 mi Calm Calm - 0.02 in Rain Light Rain
5:29 AM 42.8 °F - 39.2 °F 87% 29.92 in 3.0 mi Calm Calm - 0.03 in Rain Light Rain
5:50 AM 42.8 °F - 39.2 °F 87% 29.91 in 8.0 mi Calm Calm - 0.03 in   Overcast
5:53 AM 43.0 °F - 39.9 °F 89% 29.92 in 9.0 mi Calm Calm - 0.03 in   Overcast
5:56 AM 42.8 °F - 39.2 °F 87% 29.92 in 1.2 mi Calm Calm - N/A   Overcast
6:03 AM 42.8 °F 41.1 °F 39.2 °F 87% 29.92 in 2.0 mi North 3.5 mph - N/A   Overcast
6:10 AM 42.8 °F 41.1 °F 39.2 °F 87% 29.93 in 1.8 mi North 3.5 mph - N/A   Overcast
6:13 AM 42.8 °F - 39.2 °F 87% 29.93 in 3.0 mi Calm Calm - N/A   Overcast
6:53 AM 43.0 °F 41.3 °F 39.9 °F 89% 29.96 in 4.0 mi North 3.5 mph - N/A   Overcast
7:34 AM 42.8 °F - 41.0 °F 93% 29.95 in 7.0 mi Calm Calm - N/A   Overcast
7:53 AM 43.0 °F 41.3 °F 39.9 °F 89% 29.96 in 6.0 mi North 3.5 mph - N/A   Overcast
8:26 AM 44.6 °F - 41.0 °F 87% 29.96 in 10.0 mi Calm Calm - N/A   Overcast
8:53 AM 45.0 °F - 41.0 °F 86% 29.97 in 9.0 mi Calm Calm - N/A   Overcast
9:15 AM 44.6 °F - 41.0 °F 87% 29.97 in 10.0 mi Calm Calm - N/A   Overcast
9:53 AM 46.0 °F - 41.0 °F 83% 29.98 in 10.0 mi Calm Calm - N/A   Overcast
10:04 AM 46.4 °F - 42.8 °F 87% 29.98 in 10.0 mi Calm Calm - N/A   Overcast
10:53 AM 48.0 °F - 43.0 °F 83% 29.98 in 10.0 mi Calm Calm - N/A   Overcast
11:02 AM 48.2 °F - 42.8 °F 82% 29.98 in 10.0 mi NW 3.5 mph - N/A   Overcast
11:16 AM 48.2 °F - 44.6 °F 87% 29.97 in 10.0 mi NW 4.6 mph - N/A   Overcast
11:53 AM 48.9 °F - 43.0 °F 80% 29.97 in 10.0 mi Calm Calm - N/A   Overcast
12:53 PM 52.0 °F - 44.1 °F 74% 29.97 in 10.0 mi Variable 4.6 mph - N/A   Overcast
1:34 PM 53.6 °F - 42.8 °F 67% 29.97 in 10.0 mi Calm Calm - N/A   Overcast
1:53 PM 53.1 °F - 43.0 °F 69% 29.98 in 10.0 mi NNW 5.8 mph - N/A   Overcast
2:06 PM 51.8 °F - 42.8 °F 71% 29.98 in 10.0 mi NNW 3.5 mph - N/A   Overcast
2:53 PM 51.1 °F - 43.0 °F 74% 29.94 in 10.0 mi NNE 4.6 mph - 0.00 in Rain Light Rain
3:53 PM 52.0 °F - 44.1 °F 74% 29.92 in 10.0 mi North 4.6 mph - 0.01 in   Overcast
4:53 PM 51.1 °F - 42.1 °F 71% 29.91 in 10.0 mi NE 3.5 mph - N/A   Overcast
5:53 PM 50.0 °F - 43.0 °F 77% 29.91 in 10.0 mi NE 5.8 mph - N/A   Overcast
6:53 PM 48.9 °F - 42.1 °F 77% 29.89 in 10.0 mi NE 4.6 mph - N/A   Overcast
7:44 PM 46.4 °F 44.3 °F 42.8 °F 87% 29.89 in 6.0 mi Variable 4.6 mph - 0.05 in Rain Light Rain
7:53 PM 46.9 °F - 44.1 °F 90% 29.89 in 7.0 mi NNE 4.6 mph - 0.05 in Rain Light Rain
8:27 PM 46.4 °F 45.2 °F 42.8 °F 87% 29.90 in 6.0 mi NNE 3.5 mph - 0.04 in Rain Light Rain
8:53 PM 46.9 °F - 44.1 °F 90% 29.94 in 4.0 mi North 3.5 mph - 0.08 in Rain Light Rain
9:13 PM 46.4 °F 43.5 °F 44.6 °F 93% 29.92 in 4.0 mi North 5.8 mph - 0.01 in Rain Light Rain
9:53 PM 46.0 °F 43.1 °F 43.0 °F 89% 29.93 in 7.0 mi North 5.8 mph - 0.01 in   Overcast
10:01 PM 46.4 °F 43.5 °F 42.8 °F 87% 29.92 in 3.0 mi North 5.8 mph - 0.01 in Rain Light Rain
10:35 PM 44.6 °F 41.4 °F 42.8 °F 93% 29.91 in 7.0 mi North 5.8 mph - 0.04 in Rain Light Rain
10:42 PM 44.6 °F 41.4 °F 42.8 °F 93% 29.91 in 7.0 mi NNE 5.8 mph - 0.04 in Rain Light Rain
10:53 PM 45.0 °F 41.8 °F 41.0 °F 86% 29.92 in 7.0 mi North 5.8 mph - 0.04 in   Overcast
11:23 PM 44.6 °F 43.1 °F 41.0 °F 87% 29.92 in 8.0 mi NE 3.5 mph - 0.01 in   Overcast
11:41 PM 44.6 °F - 41.0 °F 87% 29.92 in 8.0 mi Calm Calm - 0.01 in   Overcast
11:53 PM 44.1 °F - 41.0 °F 89% 29.92 in 6.0 mi Calm Calm - 0.01 in   Overcast